This demonstration page uses our WeatherBlox Daily Observations layout. Learn more.

Left ArrowRight Arrow

38.80484, -77.04692

Hourly Observations for November 1, 2021

Temp ( °F °C ) Dew Point ( °F °C ) Humidity (%) Winds ( mph kmh ) Pressure ( in mb ) Visibility ( mi km ) Precip ( " mm )
12:52 am 00:52 Clear 55 12.8 44 6.7 67 67 W 10 17 29.97 1015 10 16 0.00 0.00
1:52 am 01:52 Clear 52 11.1 44 6.7 75 75 SW 8 13 29.97 1015 10 16 0.00 0.00
2:52 am 02:52 Partly Cloudy 53 11.7 44 6.7 72 72 SW 10 17 29.99 1016 10 16 0.00 0.00
3:52 am 03:52 Mostly Clear 52 11.1 43 6.1 72 72 WSW 6 9 30.00 1016 10 16 0.00 0.00
4:52 am 04:52 Partly Cloudy 53 11.7 43 6.1 69 69 WSW 8 13 30.02 1017 10 16 0.00 0.00
5:52 am 05:52 Mostly Clear 52 11.1 43 6.1 72 72 WSW 7 11 30.05 1018 10 16 0.00 0.00
6:52 am 06:52 Mostly Clear 53 11.7 42 5.6 66 66 WSW 7 11 30.08 1019 10 16 0.00 0.00
7:52 am 07:52 Partly Cloudy 55 12.8 42 5.6 62 62 SW 7 11 30.11 1020 10 16 0.00 0.00
8:52 am 08:52 Partly Cloudy 59 15 42 5.6 54 54 NW 6 9 30.15 1021 10 16 0.00 0.00
9:52 am 09:52 Mostly Sunny 58 14.4 41 5 53 53 NNW 17 28 30.18 1022 10 16 0.00 0.00
10:52 am 10:52 Mostly Sunny 60 15.6 35 1.7 39 39 W 14 22 30.19 1022 10 16 0.00 0.00
11:52 am 11:52 Mostly Sunny 61 16.1 33 0.6 35 35 WNW 13 20 30.20 1023 10 16 0.00 0.00
12:52 pm 12:52 Mostly Sunny 61 16.1 35 1.7 38 38 NNW 16 26 30.19 1022 10 16 0.00 0.00
1:52 pm 13:52 Mostly Sunny 62 16.7 35 1.7 37 37 NW 10 17 30.18 1022 10 16 0.00 0.00
2:52 pm 14:52 Mostly Sunny 62 16.7 33 0.6 34 34 W 7 11 30.17 1022 10 16 0.00 0.00
3:52 pm 15:52 Mostly Sunny 62 16.7 33 0.6 34 34 WNW 8 13 30.17 1022 10 16 0.00 0.00
4:52 pm 16:52 Mostly Sunny 62 16.7 32 0 32 32 WNW 8 13 30.17 1022 10 16 0.00 0.00
5:52 pm 17:52 Partly Cloudy 58 14.4 33 0.6 39 39 N 7 11 30.17 1022 10 16 0.00 0.00
6:52 pm 18:52 Partly Cloudy 58 14.4 34 1.1 41 41 N 6 9 30.18 1022 10 16 0.00 0.00
7:52 pm 19:52 Partly Cloudy 57 13.9 34 1.1 42 42 NNW 3 6 30.20 1023 10 16 0.00 0.00
8:52 pm 20:52 Mostly Cloudy 54 12.2 41 5 62 62 Calm 30.20 1023 10 16 0.00 0.00
9:52 pm 21:52 Partly Cloudy 52 11.1 40 4.4 64 64 Calm 30.23 1024 10 16 0.00 0.00
10:52 pm 22:52 Mostly Cloudy 51 10.6 39 3.9 64 64 N 5 7 30.25 1024 10 16 0.00 0.00
11:52 pm 23:52 Mostly Cloudy 51 10.6 40 4.4 66 66 Calm 30.23 1024 10 16 0.00 0.00

Powered by AerisWeather